EHI
3 3 3 3 2 1 0 0 0 1 2 2 2 1 0 0 0 0 0 0 0 0 0 0 0 0 0 0 0 0 0 0 0 0 0 0 0 0 1 2 1 1 1
3 3 3 3 3 1 0 0 0 0 1 1 1 0 0 0 1 1 0 0 0 0 0 0 0 0 0 0 0 0 0 0 0 0 0 0 0 0 1 2 1 1 1
2 2 3 5 5 3 1 1 1 1 0 0 0 0 0 1 2 1 0 0 0 0 0 0 0 0 0 0 0 0 0 0 0 0 0 0 0 0 1 2 1 1 1
1 2 5 8 8 5 3 3 2 1 0 0 0 0 0 1 1 1 0 0 0 0 0 0 0 0 0 0 0 0 0 0 1 1 0 0 0 0 1 1 0 0 0
2 3 6 8 7 5 4 4 3 1 0 0 0 0 0 0 0 0 0 0 0 0 0 0 0 0 0 0 0 0 0 1 1 1 0 0 0 0 0 0 1 1 0
1 2 4 5 4 3 2 2 1 0 0 0 0 0 0 0 0 0 0 0 0 0 0 0 0 0 0 0 0 0 1 2 1 0 0 0 0 0 0 1 2 2 1
1 1 1 2 1 1 0 0 0 0 0 0 0 0 0 0 0 0 0 0 0 0 0 0 0 0 0 0 0 0 2 3 1 0 0 0 0 0 0 1 2 2 2
1 1 0 0 0 0 0 0 0 1 1 1 0 0 0 0 0 0 0 0 0 0 0 0 0 0 0 0 0 0 2 3 1 0 0 0 0 0 0 1 1 2 2
2 2 1 0 0 0 0 0 1 2 2 1 0 0 0 0 0 0 0 0 0 0 0 0 0 0 0 0 0 1 1 2 1 0 0 0 1 1 0 0 0 1 1
2 2 1 0 0 0 0 0 1 2 1 1 0 0 0 0 0 0 0 0 0 0 0 0 0 0 0 0 1 1 1 0 0 0 0 0 1 2 1 0 0 0 0
1 1 1 0 0 0 0 0 1 1 0 0 0 0 0 0 0 0 0 0 0 0 0 0 0 0 0 0 1 1 1 0 0 0 0 0 1 2 1 1 1 2 1
0 0 0 0 0 0 0 0 0 0 0 0 0 0 0 0 0 0 0 0 0 0 0 0 0 0 0 0 0 0 0 0 0 0 0 0 0 1 1 1 1 2 2
0 0 0 0 0 0 0 0 0 0 0 0 0 0 0 0 0 0 0 0 0 0 0 0 0 0 0 0 0 0 0 0 0 1 0 0 0 0 0 0 1 1 1
0 0 0 0 0 0 0 0 0 0 0 0 0 0 0 0 0 0 0 0 0 0 0 0 0 0 0 0 0 0 0 0 1 1 0 0 0 0 0 0 0 0 0
0 0 0 0 0 0 0 0 0 0 0 0 0 0 0 0 0 0 0 0 0 0 0 0 0 0 0 0 0 0 0 0 1 0 0 1 0 0 0 0 0 0 0
0 0 0 0 0 0 0 0 0 0 0 0 0 0 0 0 0 0 0 0 0 0 0 0 0 0 0 0 0 0 0 0 0 0 0 0 0 0 0 0 0 0 0
0 0 0 0 0 0 0 0 0 0 0 0 0 0 0 0 0 0 0 0 0 0 0 0 0 0 0 0 0 0 0 0 0 0 0 0 0 0 0 0 0 0 0
0 0 0 0 0 0 0 0 0 0 0 0 0 0 0 0 0 0 0 0 0 0 0 0 0 0 0 0 0 0 0 0 0 0 0 0 0 0 0 0 0 0 0
0 0 0 0 0 0 0 0 0 0 0 0 0 0 0 0 0 0 0 0 0 0 0 0 0 0 0 0 0 0 0 0 0 0 0 0 0 0 0 0 0 0 0
0 0 0 0 0 0 0 0 0 0 0 0 0 0 0 0 0 0 0 0 0 0 0 0 0 0 0 0 0 0 0 0 0 0 0 0 0 0 0 0 0 0 0
0 0 0 0 0 0 0 0 0 0 0 0 0 0 0 0 0 0 0 0 0 0 0 0 0 0 0 0 0 0 0 0 0 0 0 0 0 0 0 0 0 0 0
0 0 0 0 0 0 0 0 0 0 0 0 0 0 0 0 0 0 0 0 0 0 0 0 0 0 0 0 0 0 0 0 0 0 0 0 0 0 0 0 0 0 0
0 0 0 0 0 0 0 0 0 0 0 0 0 0 0 0 0 0 0 0 0 0 0 0 0 0 0 0 0 0 0 0 0 0 0 0 0 0 0 0 0 0 0
0 0 0 0 0 0 0 0 0 0 0 0 0 0 0 0 0 0 0 0 0 0 0 0 0 0 0 0 0 0 0 0 0 0 0 0 0 0 0 0 0 0 0
0 0 0 0 0 0 0 0 0 0 0 0 0 0 0 0 0 0 0 0 0 0 0 0 0 0 0 0 0 0 0 0 0 0 0 0 0 0 0 0 0 0 0
0 0 0 0 0 1 1 1 0 0 0 0 0 0 0 0 0 0 0 0 0 0 0 0 0 0 0 0 0 0 0 0 0 0 0 0 0 0 0 0 0 0 0
Wind_Speed
6 7 10 10 10 11 12 12 12 12 12 12 12 12 11 11 11 11 10 10 10 10 10 9 9 9 9 9 9 9 9 8 7 7 7 7 8 8 9 9 7 6 9
8 9 11 10 11 12 13 12 12 12 12 12 12 12 11 11 11 10 9 10 10 9 9 9 8 9 9 9 9 8 8 7 6 5 5 6 8 9 10 10 8 5 8
10 10 10 12 12 12 13 13 13 13 13 12 12 11 11 10 10 9 10 10 10 10 9 9 8 8 9 8 8 8 7 6 5 5 3 3 6 9 9 10 9 9 8
11 10 10 12 12 13 13 13 13 13 13 12 11 10 10 10 10 9 9 9 10 9 9 8 7 8 8 8 8 7 6 6 6 6 3 4 5 9 10 9 9 9 8
12 11 11 12 13 13 13 13 13 13 12 11 11 10 10 9 9 9 9 9 9 9 9 8 7 7 8 8 7 7 6 6 7 4 4 6 5 9 9 9 9 9 8
13 12 11 12 12 12 13 12 12 12 11 11 10 9 9 9 9 9 9 8 8 8 8 8 7 7 8 7 7 6 6 7 6 3 5 5 5 8 9 9 8 8 8
12 11 11 13 13 13 12 12 12 12 11 10 9 9 9 9 9 9 8 8 8 8 8 8 7 7 7 7 6 6 6 8 3 3 5 6 6 9 9 8 8 8 8
11 11 11 13 13 13 13 12 11 10 9 9 8 8 8 8 8 8 8 8 8 8 8 7 7 6 6 6 5 5 6 7 4 5 6 5 8 9 9 8 8 8 8
9 10 10 10 11 12 13 12 10 9 8 7 7 7 6 6 6 7 7 8 7 7 7 6 5 4 4 4 4 4 6 7 4 3 6 5 7 7 7 8 7 7 7
7 7 8 9 9 9 8 10 9 8 7 6 6 6 6 6 6 6 7 7 6 6 5 4 3 2 1 1 2 3 5 5 2 5 4 5 8 7 8 7 8 7 7
5 5 6 7 7 7 8 9 8 8 7 6 5 6 5 4 4 4 7 6 4 3 2 1 1 1 2 3 4 4 4 1 3 5 4 7 9 9 9 8 7 7 7
4 5 5 5 5 5 5 6 4 4 4 3 3 4 2 2 3 5 5 4 3 2 2 3 4 5 5 3 4 4 1 1 3 4 5 9 9 9 9 8 8 7 7
5 4 4 5 5 5 3 3 1 2 2 1 2 3 2 3 2 3 2 2 3 3 2 2 3 2 1 1 1 1 2 3 3 4 5 10 9 8 8 8 8 7 7
6 3 3 4 4 5 4 2 2 2 2 2 2 3 3 2 1 2 1 0 0 0 0 1 1 1 2 3 3 3 4 3 4 3 5 9 8 8 9 8 8 8 8
7 4 3 3 4 5 4 1 4 3 3 3 2 2 3 2 2 2 2 2 2 1 1 1 2 3 4 5 5 5 5 5 4 4 4 8 8 9 9 9 9 9 9
7 5 3 4 4 4 4 3 4 3 3 3 2 2 4 3 3 2 2 2 2 2 2 2 3 3 3 4 4 4 4 4 4 4 4 5 9 9 9 10 10 10 10
7 6 4 4 4 6 5 4 3 3 3 3 2 3 4 4 3 3 2 2 2 2 3 3 4 3 3 3 4 4 4 4 3 4 4 4 4 8 10 10 10 11 11
7 7 4 4 5 5 4 4 2 4 3 3 3 3 4 4 5 4 3 2 2 3 3 2 3 3 3 3 3 3 3 3 4 4 4 4 3 4 7 10 11 11 11
7 7 6 5 5 5 4 3 3 4 3 3 3 3 4 5 5 4 3 2 3 3 3 3 3 3 3 3 2 2 3 3 3 4 4 5 4 4 4 6 9 10 11
6 7 7 5 5 4 3 3 3 3 3 3 3 4 5 4 5 4 2 4 4 4 4 4 4 3 2 2 2 3 2 2 3 4 4 4 4 4 4 5 4 6 11
5 7 6 5 4 3 2 2 2 2 2 3 3 5 5 5 5 4 3 4 4 4 4 4 3 3 2 2 2 2 2 3 3 3 3 3 4 5 4 5 3 3 4
6 6 6 5 5 4 2 2 2 2 2 3 3 4 4 5 5 4 4 3 4 3 4 4 4 3 2 3 2 1 2 3 3 3 3 3 4 4 4 6 5 5 4
6 5 5 5 5 4 3 2 3 2 2 2 3 2 3 4 4 4 4 4 3 3 3 4 4 4 3 3 3 2 2 1 1 2 3 4 4 4 4 4 6 6 6
6 5 5 5 5 5 4 3 3 3 2 2 2 2 2 3 3 4 4 4 4 3 3 3 4 3 3 3 3 3 3 2 1 1 2 3 4 4 4 5 5 5 5
6 5 5 5 5 4 4 3 3 2 2 2 2 3 3 3 3 3 3 3 4 3 3 4 4 4 3 3 2 2 3 3 3 2 1 2 2 2 3 3 3 4 4
6 5 5 5 4 4 4 4 4 3 3 4 3 2 2 2 2 2 2 3 3 3 3 3 3 4 3 3 3 3 3 2 2 2 1 1 1 1 2 2 3 3 3
Wind_Direction
90 93 92 89 85 85 87 85 85 86 86 85 83 80 75 71 69 66 64 64 64 66 65 63 61 62 60 60 59 57 56 55 55 60 66 69 65 60 52 45 51 67 71
103 98 92 91 89 89 88 86 85 85 83 81 80 78 74 71 69 67 64 63 61 61 64 62 59 60 59 56 55 54 51 47 41 44 65 75 69 62 57 52 53 69 72
102 99 92 90 90 89 89 87 84 84 82 80 78 79 76 74 74 69 65 63 62 59 60 62 59 59 59 57 54 50 41 26 14 8 15 77 79 64 59 53 59 72 71
102 98 92 92 90 89 88 86 85 84 82 80 78 79 77 76 74 70 66 64 63 59 60 62 61 58 57 55 51 45 31 10 355 350 29 65 67 64 61 58 60 69 68
99 97 96 95 95 93 92 90 87 87 86 84 81 80 77 76 74 72 68 65 63 61 60 61 63 58 56 53 48 38 20 360 350 10 57 67 64 62 61 61 61 66 67
102 100 99 98 98 96 93 92 90 90 89 87 84 84 81 78 76 73 70 64 62 61 61 61 60 58 55 49 42 29 9 351 345 44 66 68 63 61 63 63 63 64 64
107 110 108 104 101 99 97 95 93 91 90 92 90 89 86 82 77 70 67 64 61 61 62 61 58 55 52 46 37 22 360 343 335 69 74 69 60 61 62 61 63 64 63
114 115 116 112 106 100 99 99 96 94 94 95 96 96 94 90 85 79 72 65 62 61 62 63 63 56 49 40 29 11 354 344 12 66 81 72 65 61 59 58 57 59 59
114 124 129 126 115 108 105 104 104 104 102 102 106 109 110 108 103 96 83 75 69 68 66 66 68 64 51 30 13 358 346 345 359 34 71 69 64 64 63 59 56 56 58
112 121 128 131 134 128 120 120 124 123 124 131 136 141 144 139 127 112 97 86 78 75 74 74 77 78 56 331 319 322 321 323 29 68 63 65 59 69 71 62 56 57 59
109 114 114 120 126 130 133 137 149 148 154 159 166 175 177 179 151 121 101 109 102 97 106 133 194 205 233 254 263 278 304 321 80 80 65 66 66 70 69 63 60 57 58
114 109 118 121 121 117 114 140 163 148 157 184 165 160 190 111 94 103 121 137 150 161 205 231 238 245 237 230 234 248 305 45 69 83 73 75 70 65 64 63 60 57 58
110 98 114 117 117 122 111 109 106 112 141 119 71 105 93 88 111 117 145 172 197 189 223 233 243 246 209 125 94 106 63 58 63 72 78 78 72 68 65 63 60 55 55
104 93 89 101 108 103 99 108 102 71 73 62 29 68 76 65 65 75 92 80 101 127 64 313 312 16 32 59 69 69 70 71 77 85 83 82 75 70 65 62 60 56 55
114 101 78 81 98 100 90 76 84 61 44 69 25 47 82 70 67 58 61 25 18 16 22 3 30 39 33 37 43 53 62 66 76 81 85 82 79 71 65 58 58 56 53
117 115 97 77 67 89 89 72 71 79 67 54 16 40 75 65 69 48 55 44 25 7 11 30 47 38 51 50 44 44 57 62 74 92 102 87 78 73 67 59 58 55 53
125 111 89 89 78 73 68 56 65 65 68 55 24 26 67 66 62 57 39 38 23 15 29 36 35 31 55 56 54 51 49 47 57 75 90 98 88 73 70 64 60 56 53
121 113 100 87 85 81 73 58 58 62 56 54 35 21 48 63 65 47 30 25 33 28 30 44 40 32 42 44 52 54 58 45 45 57 65 79 92 89 75 70 64 59 54
122 125 121 99 88 86 89 80 56 67 54 51 41 24 32 46 58 57 28 17 40 33 23 38 49 36 44 37 54 70 67 60 47 53 59 64 71 92 95 80 70 61 55
128 126 116 110 105 106 87 78 65 55 59 57 50 40 33 32 46 51 47 37 41 35 23 35 39 35 41 15 45 64 74 81 62 50 51 55 52 67 87 94 78 61 55
133 123 122 123 116 103 92 94 85 72 67 60 55 46 41 37 29 51 45 44 44 42 31 36 36 27 20 39 47 38 45 61 71 65 54 47 51 50 60 81 77 72 59
132 128 130 120 108 95 81 93 103 92 86 84 59 44 43 42 25 42 51 54 52 46 31 33 38 23 10 30 57 58 48 20 16 67 70 64 53 44 48 60 60 59 64
139 136 134 130 123 117 110 86 88 72 64 87 90 64 48 55 39 28 39 52 52 57 41 37 35 35 18 1 32 61 81 68 347 23 58 63 57 44 44 52 56 50 58
146 142 141 132 130 134 132 124 124 123 115 104 108 113 93 71 60 37 37 47 54 59 56 40 42 34 35 10 7 26 54 89 94 44 17 50 61 57 50 51 56 53 55
152 149 141 136 139 134 128 121 123 121 121 107 102 102 92 76 70 56 36 44 54 56 57 56 50 41 41 29 24 18 18 23 28 89 61 22 39 47 66 62 63 58 54
144 142 139 139 131 139 153 147 137 128 118 109 96 102 99 86 71 69 55 56 59 54 56 53 54 51 45 39 34 39 38 33 12 46 62 54 72 29 60 60 66 63 58